Regional Weather Roundup
Issued by NWS

Home | Current Version | Previous Version | Text Only | Print | Product List | Glossary On
Versions: 1 2 3 4 5 6 7 8 9 10 11 12 13 14 15 16 17 18 19 20 21 22 23 24 25 26 27 28
000
ASCA42 TJSJ 300110
RWRPR
PUERTO RICO/U.S. VIRGIN ISLANDS HOURLY WEATHER ROUNDUP
NATIONAL WEATHER SERVICE SAN JUAN PR
900 PM AST SAT APR 29 2017

PRZ001>002-007>008-010-300200-
PUERTO RICO

CITY           SKY/WX    TMP DP  RH WIND       PRES   REMARKS
SAN JUAN LMM   PTCLDY    79  72  78 E12       30.07R
AGUADILLA      LGT RAIN  75  70  83 E9        30.07R
CEIBA          MOCLDY    79  73  83 E10       30.09R
$$

VIZ001>002-300200-
U.S. VIRGIN ISLANDS

CITY           SKY/WX    TMP DP  RH WIND       PRES   REMARKS
CHARLOTTE AMA  MOCLDY    77  73  88 E10G21    30.06R
CHRISTIANSTED  MOCLDY    79  72  78 NE13      30.06R
$$

HOURLY WEATHER ROUNDUP FOR THE NEWS MEDIA

CITY           SKY/WX    TMP DP  RH WIND       PRES   REMARKS
ORLANDO        CLEAR     78  69  73 E14       30.13R
NEW YORK       CLOUDY    80  58  46 W20       30.05R
NEWARK         CLOUDY    78  58  49 NW13      30.04R
CHICAGO        LGT RAIN  41  39  93 NE18G28   30.07F FOG
HARTFORD       CLEAR     72  54  53 W12       29.97R
BOSTON         PTCLDY    71  48  43 W21G29    29.94R
DALLAS         TSTM      59  53  80 NW18      29.67R
PHILADELPHIA   MOCLDY    79  61  53 W6        30.05R
LOS ANGELES    SUNNY     68  42  38 W21       29.98F
WASHINGTON DC  PTCLDY    75  68  78 S5        30.07R



USA.gov is the U.S. government's official web portal to all federal, state and local government web resources and services.